Flag for Canada Weather past 2 weeks in Saskatoon, Saskatchewan, Canada

Now
30 °F

Overcast.


Feels Like: 19 °F
Forecast: 31 / 37 °F
Wind: 16 mph from Northeast

Location: Saskatoon Weather Station

Current Time: Apr 25, 2015 at 2:49:12 AM

Latest Report: Apr 25, 2015 at 2:00 AM


Visibility: 15 mi

Pressure: 29.90 "Hg

Humidity: 86%

Dew point: 27 °F

Location of SaskatoonLocation

Historic Weather in Saskatoon — Graph

°F

Saskatoon temperature yesterday

Maximum temperature yesterday: 57 °F (at 2:00 PM)
Minimum temperature yesterday: 32 °F (at 11:00 PM)
Average temperature yesterday: 43 °F

Past Weeks' High & Low Weather Summary

 TemperatureHumidityPressure
High70 °F (Apr 10, 3:00 PM)100% (Apr 21, 2:00 AM)30.27 "Hg (Apr 21, 2:00 AM)
Low19 °F (Apr 21, 6:00 AM)13% (Apr 13, 2:00 PM)29.27 "Hg (Apr 11, 5:00 PM)
Average46 °F48%29.91 "Hg
* Reported Apr 10 1:00 AM — Apr 25 1:00 AM, Saskatoon, Weather by CustomWeather, © 2015

Note: Actual official high and low records may vary slightly from our data, if they occured in-between our weather recording intervals... More about our weather records

Advertising

Saskatoon weather history for previous 24 hours

 ConditionsComfort  
Time TempWeatherWind HumidityBarometerVisibility
1:00 AM
Sat, Apr 25
30 °FMostly cloudy.21 mph86%29.90 "Hg15 mi
12:00 AM30 °FMostly cloudy.15 mph86%29.90 "Hg15 mi
11:00 PM
Fri, Apr 24
32 °FPassing clouds.22 mph80%29.90 "Hg15 mi
10:00 PM34 °FOvercast.17 mph75%29.88 "Hg15 mi
9:00 PM37 °FPassing clouds.16 mph70%29.85 "Hg15 mi
8:00 PM39 °FPartly sunny.20 mph65%29.83 "Hg15 mi
7:00 PM45 °FMore clouds than sun.22 mph57%29.80 "Hg15 mi
6:46 PM48 °FBroken clouds.17 mph54%29.79 "Hg15 mi
5:00 PM54 °FMostly cloudy.15 mph47%29.75 "Hg15 mi
4:00 PM57 °FPartly sunny.12 mph39%29.75 "Hg15 mi
3:00 PM55 °FPartly sunny.12 mph44%29.74 "Hg15 mi
2:00 PM57 °FBroken clouds.10 mph41%29.75 "Hg15 mi
1:00 PM52 °FBroken clouds.6 mph54%29.75 "Hg15 mi
12:00 PM52 °FBroken clouds.No wind54%29.75 "Hg15 mi
11:00 AM50 °FBroken clouds.8 mph58%29.75 "Hg15 mi
10:00 AM45 °FPassing clouds.9 mph71%29.75 "Hg15 mi
9:00 AM41 °FMostly cloudy.8 mph81%29.74 "Hg15 mi
8:00 AM39 °FOvercast.9 mph87%29.73 "Hg15 mi
7:00 AM36 °FMostly cloudy.8 mph93%29.73 "Hg15 mi
6:00 AM34 °FPartly sunny.8 mph100%29.73 "Hg15 mi
5:00 AM39 °FPartly cloudy.5 mph87%29.72 "Hg15 mi
4:00 AM39 °FMostly cloudy.5 mph87%29.73 "Hg15 mi
3:00 AM39 °FSprinkles. Mostly cloudy.3 mph87%29.74 "Hg15 mi
2:00 AM37 °FMostly cloudy.3 mph87%29.75 "Hg15 mi
Weather by CustomWeather, © 2015

See weather overviewHow to use our weather pages